This demonstration page uses our WeatherBlox Daily Observations layout. Learn more.

41.55636, -103.73856

Hourly Observations for May 14, 2018

Temp ( °F °C ) Dew Point ( °F °C ) Humidity (%) Winds ( mph kmh ) Pressure ( in mb ) Visibility ( mi km ) Precip ( " mm )
12:53 am 00:53 Cloudy 55 12.8 55 12.8 100 100 SSE 7 11 29.97 1015 10 16.09344 0.01 0.254
1:31 am 01:31 Mostly Cloudy 54 12.2 54 12.2 100 100 NNW 6 9 29.91 1013 10 16.09344 0.001 0.001
1:53 am 01:53 Clear 52 11.1 52 11.1 100 100 NW 7 11 29.91 1013 10 16.09344 0.001 0.001
2:53 am 02:53 Clear 51 10.6 51 10.6 100 100 WNW 7 11 29.91 1013 10 16.09344 0 0
3:53 am 03:53 Clear with Mist and Fog 49 9.4 49 9.4 100 100 Calm 29.97 1015 2 3.218688 0 0
4:07 am 04:07 Partly Cloudy with Mist and Fog 50 10 50 10 100 100 Calm 29.97 1015 1.75 2.816352 0 0
4:22 am 04:22 Mostly Clear with Mist and Fog 50 10 50 10 100 100 WNW 7 11 29.97 1015 3 4.828032 0 0
4:37 am 04:37 Mostly Clear with Mist and Fog 49 9.4 49 9.4 100 100 NNW 7 11 30 1016 1.75 2.816352 0 0
4:49 am 04:49 Mostly Cloudy with Mist and Fog 50 10 50 10 100 100 NNW 8 13 30.03 1017 0.75 1.207008 0 0
4:53 am 04:53 Mostly Cloudy with Fog 50 10 50 10 100 100 NW 7 11 29.97 1015 0.5 0.804672 0 0
5:03 am 05:03 Mostly Cloudy with Mist and Fog 50 10 50 10 100 100 NW 8 13 30.03 1017 2 3.218688 0 0
5:14 am 05:14 Cloudy with Mist and Fog 50 10 50 10 100 100 NW 7 11 30.03 1017 5 8.04672 0 0
5:24 am 05:24 Cloudy with Mist and Fog 50 10 50 10 100 100 NNW 7 11 30.03 1017 1.75 2.816352 0 0
5:44 am 05:44 Mostly Cloudy with Mist and Fog 48 9 48 9 100 100 NW 5 7 30.03 1017 0.75 1.207008 0 0
5:53 am 05:53 Mostly Cloudy with Fog 49 9.4 49 9.4 100 100 WNW 3 6 29.97 1015 0.5 0.804672 0 0
6:01 am 06:01 Mostly Cloudy with Fog 49 9.4 49 9.4 100 100 WNW 5 7 30.03 1017 0.25 0.402336 0 0
6:36 am 06:36 Mostly Cloudy with Fog 48 9 48 9 100 100 NW 3 6 30.03 1017 0.25 0.402336 0 0
6:53 am 06:53 Mostly Cloudy with Fog 49 9.4 49 9.4 100 100 Calm 30 1016 0.25 0.402336 0 0
7:07 am 07:07 Mostly Cloudy with Fog 48 8.9 48 8.9 100 100 Calm 30.06 1018 0.25 0.402336 0 0
7:44 am 07:44 Mostly Cloudy with Mist and Fog 52 11 52 11 100 100 W 3 6 30.03 1017 0.75 1.207008 0 0
7:53 am 07:53 Cloudy with Mist and Fog 52 11.1 52 11.1 100 100 WNW 5 7 30 1016 1.75 2.816352 0 0
7:57 am 07:57 Cloudy with Mist and Fog 52 11.1 52 11.1 100 100 WNW 5 7 30.03 1017 3 4.828032 0 0
8:13 am 08:13 Mostly Cloudy 53 11.7 53 11.7 100 100 W 6 9 30.03 1017 10 16.09344 0 0
8:29 am 08:29 Partly Cloudy 53 11.7 53 11.7 100 100 N 5 7 30.03 1017 10 16.09344 0 0
8:53 am 08:53 Partly Cloudy 58 14.4 56 13.3 93 93 Calm 30 1016 10 16.09344 0 0
9:14 am 09:14 Mostly Cloudy 59 15 56 13.3 90 90 N 6 9 29.97 1015 10 16.09344 0 0
9:23 am 09:23 Partly Cloudy 61 16.1 55 12.8 81 81 NNE 6 9 29.97 1015 10 16.09344 0 0
9:50 am 09:50 Mostly Cloudy 63 17 54 12 73 73 E 9 15 29.91 1013 10 16.09344 0 0
9:53 am 09:53 Mostly Cloudy 62 16.7 53 11.7 73 73 ENE 8 13 29.97 1015 10 16.09344 0 0
10:03 am 10:03 Partly Cloudy 62 16.7 53 11.7 73 73 E 9 15 29.91 1013 10 16.09344 0 0
10:53 am 10:53 Mostly Cloudy 63 17.2 54 12.2 73 73 ENE 5 7 29.97 1015 10 16.09344 0 0
11:21 am 11:21 Partly Cloudy 63 17.2 52 11.1 68 68 Calm 29.91 1013 10 16.09344 0 0
11:53 am 11:53 Partly Cloudy 66 18.9 52 11.1 61 61 N 3 6 29.97 1015 10 16.09344 0 0
12:53 pm 12:53 Cloudy 66 18.9 52 11.1 61 61 Calm 29.94 1014 10 16.09344 0 0
1:53 pm 13:53 Cloudy 67 19.4 52 11.1 59 59 Calm 29.94 1014 10 16.09344 0 0
2:53 pm 14:53 Cloudy 67 19.4 51 10.6 57 57 ESE 3 6 29.94 1014 10 16.09344 0 0
3:53 pm 15:53 Mostly Cloudy 67 19.4 50 10 55 55 Calm 29.91 1013 10 16.09344 0 0
4:53 pm 16:53 Cloudy with Nearby Thunderstorms 62 16.7 55 12.8 78 78 W 13 20 29.97 1015 7 11.265408 0.001 0.001
5:18 pm 17:18 Windy with Storms Likely 56 13.3 54 12.2 93 93 W 25 41 29.97 1015 9 14.484096 0.04 1.016
5:53 pm 17:53 Cloudy with Rain 54 12 N/A N/A W 12 19 30.03 1017 5 8.04672 0.11 2.794
6:53 pm 18:53 Sunny 54 12 N/A N/A N 13 20 30.03 1017 10 16.09344 0.05 1.27
7:53 pm 19:53 Sunny 54 12 N/A N/A NNE 8 13 30 1016 10 16.09344 0 0
8:53 pm 20:53 Clear 52 11 N/A N/A NNE 6 9 30 1016 10 16.09344 0 0
9:53 pm 21:53 Clear 51 10.6 50 10 96 96 WSW 6 9 30.03 1017 10 16.09344 0 0
10:53 pm 22:53 Clear 49 9.4 48 8.9 97 97 Calm 30.03 1017 10 16.09344 0 0
11:53 pm 23:53 Clear 46 7.8 46 7.8 100 100 W 5 7 30.06 1018 10 16.09344 0 0

Powered by AerisWeather